This is the latest recevied weather packets stored in our database for station/object KE5AKC. If no packets are shown the sender has not sent any weather packets the latest 10 day(s).
| Time | Temp. | Humidity | Pressure | Rain* | Wind** | Luminosity | Snow |
|---|---|---|---|---|---|---|---|
| 1777513112 | 26.11° C | 78% | 1010 hPa | 0 mm | - | 0 W/m² | - |
| 1777512808 | 26.11° C | 78% | 1010 hPa | 0 mm | - | 0 W/m² | - |
| 1777512505 | 26.11° C | 78% | 1009.7 hPa | 0 mm | - | 0 W/m² | - |
| 1777512202 | 26.11° C | 78% | 1009.3 hPa | 0 mm | - | 0 W/m² | - |
| 1777511899 | 26.11° C | 78% | 1009.3 hPa | 0 mm | - | 0 W/m² | - |
| 1777511597 | 26.11° C | 78% | 1009.7 hPa | 0 mm | - | 0 W/m² | - |
| 1777511294 | 26.67° C | 77% | 1009.7 hPa | 0 mm | - | 1 W/m² | - |
| 1777510990 | 26.67° C | 77% | 1009.7 hPa | 0 mm | - | 2 W/m² | - |
| 1777510687 | 26.67° C | 76% | 1009.3 hPa | 0 mm | - | 3 W/m² | - |
| 1777510383 | 26.67° C | 76% | 1009 hPa | 0 mm | - | 5 W/m² | - |
| 1777510079 | 26.67° C | 76% | 1009 hPa | 0 mm | - | 8 W/m² | - |
| 1777509776 | 26.67° C | 76% | 1009 hPa | 0 mm | - | 13 W/m² | - |
| 1777509471 | 27.22° C | 75% | 1008.6 hPa | 0 mm | - | 20 W/m² | - |
| 1777509170 | 27.22° C | 75% | 1009 hPa | 0 mm | - | 26 W/m² | - |
| 1777508866 | 27.22° C | 75% | 1009 hPa | 0 mm | - | 34 W/m² | - |
| 1777508563 | 27.22° C | 75% | 1009 hPa | 0 mm | - | 43 W/m² | - |
| 1777508260 | 27.22° C | 74% | 1009 hPa | 0 mm | - | 61 W/m² | - |
| 1777507957 | 27.22° C | 74% | 1009 hPa | 0 mm | - | 79 W/m² | - |
| 1777507653 | 27.78° C | 73% | 1009 hPa | 0 mm | - | 80 W/m² | - |
| 1777507351 | 27.78° C | 73% | 1009 hPa | 0 mm | - | 58 W/m² | - |
| 1777507048 | 27.78° C | 72% | 1009 hPa | 0 mm | - | 68 W/m² | - |
| 1777506746 | 27.78° C | 72% | 1009 hPa | 0 mm | - | 91 W/m² | - |
| 1777506442 | 27.78° C | 72% | 1009 hPa | 0 mm | - | 89 W/m² | - |
| 1777506138 | 27.78° C | 71% | 1009 hPa | 0 mm | - | 118 W/m² | - |
| 1777505834 | 28.33° C | 70% | 1009 hPa | 0 mm | - | 110 W/m² | - |
* Rain latest hour (hover to see other rain measurements)
** Current wind speed in m/s (hover to see current wind gust speed)